Regional Weather Roundup
Issued by NWS

Home | Current Version | Previous Version | Text Only | Print | Product List | Glossary Off
Versions: 1 2 3 4 5 6 7 8 9 10 11 12 13 14 15 16 17 18 19 20 21 22 23 24 25 26 27 28 29 30 31 32 33 34 35 36 37 38 39 40 41 42 43 44 45 46 47 48 49 50

000
ASUS43 KDTX 050101
RWRMI
MICHIGAN HOURLY REGIONAL WEATHER ROUNDUP
NATIONAL WEATHER SERVICE DETROIT/PONTIAC MI
900 PM EDT MON MAY 04 2015

NOTE: "FAIR" INDICATES FEW OR NO CLOUDS BELOW 12,000 FEET WITH NO
SIGNIFICANT WEATHER AND/OR OBSTRUCTION TO VISIBILITY.

MIZ047>049-052>055-059>063-066>070-074>076-081>083-050200-
SOUTHEAST LOWER MICHIGAN

CITY           SKY/WX    TMP DP  RH WIND       PRES   REMARKS
ADRIAN         CLOUDY    67  60  78 W5        30.15R
ALMA           MOCLDY    67  37  33 N8        30.15R
ANN ARBOR      MOCLDY    66  56  70 CALM      30.14R
BAD AXE        CLEAR     57  42  56 NE7       30.16R
CARO           PTCLDY    65  48  55 NW7       30.13R
DETROIT CITY   PTCLDY    69  59  70 S6        30.13R
DETROIT        CLOUDY    71  61  70 S6        30.13R
FLINT          CLOUDY    71  56  58 W5        30.13R
GROSSE ILE     CLOUDY    68  61  77 W3        30.13R
HILLSDALE      MOCLDY    66  53  62 W3        30.16R
HOWELL         MOCLDY    68  54  60 CALM      30.14R

CITY           SKY/WX    TMP DP  RH WIND       PRES   REMARKS
JACKSON        MOCLDY    67  54  63 W3        30.14R
LAMBERTVILLE   CLOUDY    68  59  73 SW6       30.15S
LANSING        MOCLDY    69  53  56 W6        30.15R
LAPEER         FAIR      65  54  67 CALM      30.14R
MASON          MOCLDY    68  52  57 W3        30.14R
MONROE         CLOUDY    66  61  82 SW7       30.12R
PONTIAC        MOCLDY    69  54  58 N5        30.13R
PORT HOPE        N/A     53  40  61 N3        30.15R
PORT HURON     PTCLDY    59  54  82 CALM      30.15R
TRI CITIES     PTCLDY    66  38  35 N13       30.14R
MIDLAND        FAIR      65  34  31 NW7       30.15R
TROY           PTCLDY    72  53  50 N3        30.15R
SAGINAW HB     PTCLDY    68  37  32 N9        30.13R
$$
MIZ043>046-050>051-056>058-064>065-071>073-077>080-050200-
SOUTHWEST LOWER MICHIGAN

CITY           SKY/WX    TMP DP  RH WIND       PRES   REMARKS
BATTLE CREEK   MOCLDY    66  54  65 W6        30.16R
BENTON HARBOR  MOCLDY    57  52  83 CALM      30.17R
BIG RAPIDS     PTCLDY    61  36  39 N6        30.17S
COLDWATER      MOCLDY    65  54  66 W6        30.15S
FREMONT        FAIR      64  32  30 N7        30.16R
HOLLAND        PTCLDY    56  44  64 W3        30.17R
GRAND RAPIDS   MOCLDY    64  50  60 W9        30.15R
IONIA          FAIR      65  54  66 SW8       30.14R
KALAMAZOO      MOCLDY    67  54  63 W5        30.17R
LUDINGTON      PTCLDY    62  33  34 NE3       30.19R
MARSHALL       MOCLDY    64  54  69 W6        30.15R
MOUNT PLEASANT PTCLDY    63  37  37 N6        30.16R
MUSKEGON       MOCLDY    66  37  34 N9        30.16R
SOUTH HAVEN    MOCLDY    58  51  76 W3        30.17R
$$
MIZ016>042-050200-
NORTHERN LOWER MICHIGAN

CITY           SKY/WX    TMP DP  RH WIND       PRES   REMARKS
ALPENA         PTCLDY    57  31  37 N6        30.18R
BEAVER ISLAND  PTCLDY    49  34  56 N5        30.22R
BELLAIRE       MOCLDY    55  37  52 CALM      30.22R
CADILLAC       PTCLDY    54  31  41 N3        30.20R
CHARLEVOIX     PTCLDY    51  34  53 CALM      30.25R
FRANKFORT      MOCLDY    59  26  27 NE7       30.21R
GAYLORD        PTCLDY    55  33  43 W5        30.21R
GRAYLING       MOCLDY    53  32  44 NW3       30.21R
HARBOR SPRINGS PTCLDY    42  35  74 CALM      30.21R
HOUGHTON LAKE  PTCLDY    56  38  50 NW8       30.20R
MANISTEE       MOCLDY    59  28  31 NE8       30.21R
OSCODA         PTCLDY    56  40  56 CALM      30.16R
PELLSTON       PTCLDY    51  33  50 W7        30.21R
ROGERS CITY    CLEAR     50  38  64 NW9       30.20R
TRAVERSE CITY  MOCLDY    52  37  56 NE3       30.22R
$$
MIZ007>008-015-050200-
EASTERN UPPER MICHIGAN

CITY           SKY/WX    TMP DP  RH WIND       PRES   REMARKS
KINROSS        PTCLDY    45  39  81 NW9       30.20R
MACKINAC ISLAN CLEAR     51  37  57 N7        30.20R
NEWBERRY       CLEAR     50  37  60 W13       30.21S
S. S. MARIE    PTCLDY    44  36  73 NW8       30.21R
MUNISING         N/A     50  37  61 CALM      30.22S
$$
MIZ004>006-011>014-085-050200-
CENTRAL UPPER MICHIGAN

CITY           SKY/WX    TMP DP  RH WIND       PRES   REMARKS
MANISTIQUE     CLEAR     51  33  51 N7        30.22S
ESCANABA       PTCLDY    57  28  33 CALM      30.22R
MENOMINEE      MOCLDY    54  37  54 E8        30.21S
SAWYER-GWINN   CLEAR     52  34  50 NE5       30.22R
$$
MIZ001>003-009>011-084-050200-
WESTERN UPPER MICHIGAN

CITY           SKY/WX    TMP DP  RH WIND       PRES   REMARKS
IRON MOUNTAIN  PTCLDY    59  35  40 E7        30.19R
HOUGHTON       PTCLDY    58  32  37 W3        30.20R
COPPER HARBOR    N/A     52  38  58 SE3       30.20R
IRONWOOD       PTCLDY    59  19  21 SE3       30.19S
$$

ABBREVIATIONS USED IN REMARKS
   TC - TEMPERATURE IN CELSIUS
  WCI - WIND CHILL INDEX
   HX - HEAT INDEX
  VSB - VISIBILITY




USA.gov is the U.S. government's official web portal to all federal, state and local government web resources and services.